Weather observations for the past three days for
Lancaster, Lancaster Airport
Imperial (Metric)
Date Time (edt) Wind (mph) Vis. (mi.) Weather Sky Cond. Temperature (ºF) Relative Humidity Wind Chill (°F) Heat Index (°F) Pressure Precipitation (in)
Air Dwpt 6 hour altimeter (in) sea level (mb) 1 hr 3 hr 6 hr
Max. Min.
12 13:53 Calm 8.00 Light Rain BKN040 BKN075 BKN120 75.9 70 78.1 70 82% 77 30.18 1021.9
12 12:53 NW 9 7.00 Light Rain FEW035 SCT055 BKN120 77 70 79% 79 30.18 1021.8
12 11:53 Calm 9.00 Light Rain BKN080 77 68 74% 79 30.2 1022.2
12 10:53 W 3 9.00 Light Rain FEW044 FEW100 SCT120 75 68 79% 76 30.19 1021.8
12 09:53 NW 3 10.00 Mostly Cloudy SCT080 BKN100 75 68 79% 76 30.17 1021.3
12 08:53 Calm 10.00 Partly Cloudy SCT110 72 66.9 84% 30.17 1021.4
12 07:53 SE 3 10.00 Light Rain FEW043 SCT070 BKN110 70 66.9 70 64.9 90% 30.16 1021.1
12 06:53 Calm 8.00 Mostly Cloudy BKN110 69.1 66.9 93% 30.13 1019.9
12 05:53 E 3 8.00 Mostly Cloudy BKN110 66.9 66 97% 30.13 1020.0
12 04:53 Calm 8.00 Fair CLR 66 64.9 96% 30.12 1019.6
12 03:53 Calm 9.00 Fair CLR 66 64.9 96% 30.1 1018.9
12 02:53 Calm 10.00 Fair CLR 66.9 64.9 93% 30.1 1019.0
12 01:53 Calm 10.00 Fair CLR 68 64.9 79 68 90% 30.11 1019.1
12 00:53 Calm 10.00 Fair CLR 69.1 64.9 87% 30.11 1019.2
11 23:53 SE 3 10.00 Fair CLR 69.1 64.9 87% 30.1 1018.9
11 22:53 Calm 10.00 Fair CLR 71.1 66 84% 30.09 1018.6
11 21:53 Calm 10.00 Fair CLR 73.9 64.9 74% 30.08 1018.2
11 20:53 Calm 10.00 Fair CLR 75.9 64.9 69% 78 30.06 1017.6
11 19:53 NW 6 10.00 Partly Cloudy SCT050 79 64 82 79 60% 81 30.05 1017.3
11 18:53 W 7 10.00 Overcast OVC050 80.1 63 56% 81 30.05 1017.1
11 17:53 W 8 10.00 Overcast OVC049 81 63 54% 82 30.03 1016.5
11 16:53 W 7 10.00 Overcast OVC048 81 63 54% 82 30.02 1016.3
11 15:53 W 12 10.00 Overcast OVC048 81 62.1 53% 82 30.01 1015.8
11 14:53 W 13 10.00 Overcast OVC048 81 62.1 53% 82 30 1015.6
11 13:53 NW 9 10.00 Overcast OVC044 81 62.1 81 75 53% 82 29.99 1015.3
11 12:53 W 12 10.00 Overcast OVC043 80.1 62.1 54% 81 29.99 1015.3
11 11:53 W 10 10.00 Overcast OVC041 79 62.1 56% 80 29.99 1015.0
11 10:53 NW 14 10.00 Overcast OVC040 78.1 62.1 58% 80 29.97 1014.4
11 09:53 W 17 G 22 10.00 Overcast OVC042 79 62.1 56% 80 29.96 1014.0
11 08:53 W 10 10.00 Mostly Cloudy BKN041 78.1 62.1 58% 80 29.95 1013.7
11 07:53 W 12 10.00 Mostly Cloudy BKN041 75 62.1 75.9 70 64% 77 29.93 1013.0
11 06:53 W 8 10.00 Fair CLR 73 62.1 69% 29.92 1012.6
11 05:53 W 7 10.00 A Few Clouds FEW039 70 62.1 76% 29.89 1011.8
11 04:53 W 7 10.00 Fair CLR 72 62.1 71% 29.87 1010.9
11 03:53 W 8 10.00 Partly Cloudy SCT080 73 63 71% 29.85 1010.3
11 02:53 W 6 10.00 Mostly Cloudy BKN090 75 64 69% 77 29.85 1010.2
11 01:53 W 7 10.00 Mostly Cloudy BKN060 75.9 68 87.1 75.9 77% 77 29.82 1009.5 0.24
11 00:53 W 9 10.00 A Few Clouds FEW065 78.1 71.1 79% 80 29.81 1009.0
10 23:53 W 7 10.00 Fair CLR 80.1 78.1 94% 86 29.78 1008.1
10 22:53 S 13 10.00 Thunderstorm in Vicinity FEW025 BKN040 OVC100 81 78.1 91% 89 29.76 1007.4 0.24 0.24
10 21:53 S 15 G 24 10.00 Overcast OVC110 84.9 75.9 75% 94 29.74 1006.6
10 20:53 S 15 G 30 10.00 A Few Clouds FEW100 84.9 75 72% 93 29.72 1006.1
10 19:53 S 18 G 29 10.00 Partly Cloudy SCT110 87.1 75 95 87.1 67% 97 29.72 1005.8
10 18:53 S 13 G 24 10.00 A Few Clouds FEW038 90 73.9 59% 99 29.72 1005.8
10 17:53 S 18 G 29 10.00 Partly Cloudy SCT043 89.1 72 57% 96 29.72 1006.0
10 16:53 S 25 G 33 10.00 A Few Clouds and Breezy FEW044 93 72 50% 101 29.72 1006.0
10 15:53 S 22 G 32 10.00 A Few Clouds and Breezy FEW047 93.9 72 49% 102 29.74 1006.7
10 14:53 S 23 G 36 10.00 Light Rain and Breezy FEW045 93.9 71.1 48% 101 29.76 1007.4
10 13:53 S 22 G 32 10.00 Light Rain and Breezy FEW041 93 73 93.9 82 52% 102 29.78 1008.0
10 12:53 S 12 G 26 10.00 Mostly Cloudy BKN037 93 73.9 54% 103 29.81 1009.0
10 11:53 S 17 G 28 10.00 Mostly Cloudy BKN034 91 75 59% 102 29.83 1009.6
10 10:53 S 16 G 22 10.00 Partly Cloudy SCT029 89.1 75.9 65% 100 29.84 1010.0
10 09:53 S 12 10.00 Mostly Cloudy SCT023 BKN047 87.1 75.9 70% 98 29.85 1010.5
10 08:53 S 9 10.00 Mostly Cloudy BKN014 84.9 77 77% 95 29.86 1010.6
10 07:53 S 9 10.00 Mostly Cloudy BKN014 82 77 82 75.9 85% 90 29.87 1010.9
10 06:53 E 5 6.00 Fog/Mist FEW012 79 77 94% 83 29.86 1010.7
10 05:53 SE 3 4.00 Fog/Mist FEW011 75.9 75 97% 75 29.86 1010.7
10 04:53 E 3 7.00 Mostly Cloudy BKN012 77 75.9 96% 78 29.87 1011.0
10 03:53 NE 5 9.00 Fair CLR 77 75 94% 78 29.87 1011.1
10 02:53 NE 3 7.00 Fair CLR 75.9 75 97% 75 29.88 1011.4
10 01:53 NE 5 10.00 Fair CLR 79 75 84.9 78.1 88% 83 29.89 1011.8
10 00:53 NE 5 10.00 Fair CLR 78.1 75 90% 81 29.9 1012.1
09 23:53 E 3 10.00 Fair CLR 79 75 88% 83 29.91 1012.4
09 22:53 E 5 10.00 Fair CLR 78.1 73.9 87% 81 29.91 1012.6
09 21:53 Calm 10.00 Fair CLR 80.1 75 85% 85 29.91 1012.5
09 20:53 Calm 10.00 A Few Clouds FEW070 82.9 75 77% 90 29.9 1012.2
09 19:53 Calm 10.00 A Few Clouds FEW070 84 73.9 96.1 81 72% 91 29.9 1012.1 0.18
09 18:53 E 6 10.00 Thunderstorm FEW055 84.9 73.9 70% 92 29.9 1011.9
09 17:53 E 9 10.00 Thunderstorm in Vicinity BKN055 84.9 73.9 70% 92 29.9 1012.1
09 16:53 E 12 10.00 Light Rain SCT046 SCT055 BKN070 84.9 75 72% 93 29.91 1012.5 0.18
09 15:53 E 5 10.00 A Few Clouds FEW090 87.1 79 77% 101 29.92 1012.7 0.18
09 14:53 S 12 G 17 10.00 Mostly Cloudy FEW055 SCT070 BKN095 93 71.1 49% 100 29.93 1013.0
Date Time (edt) Wind (mph) Vis. (mi.) Weather Sky Cond. Air Dwpt Max. Min. Relative Humidity Wind Chill (°F) Heat Index (°F) altimeter (in) sea level (mb) 1 hr 3 hr 6 hr
6 hour
Temperature (ºF) Pressure Precipitation (in)